Regional Weather Roundup
Issued by NWS

Home | Current Version | Previous Version | Graphics & Text | Print | Product List | Glossary On
Versions: 1 2 3 4 5 6 7 8 9 10 11 12 13 14 15 16 17 18 19 20 21 22 23 24 25 26 27 28 29 30 31 32 33 34 35 36 37 38 39 40 41 42 43 44 45 46 47 48 49 50
000
ASUS45 KBOI 030010
RWRID

IDAHO REGIONAL WEATHER ROUNDUP
NATIONAL WEATHER SERVICE BOISE ID
600 PM MDT THU JUL 02 2015

NOTE: "FAIR" INDICATES FEW OR NO CLOUDS BELOW 12000 FEET
WITH NO SIGNIFICANT WEATHER AND/OR OBSTRUCTIONS TO VISIBILITY

IDZ012-014-030100-
SOUTHWEST IDAHO


CITY           SKY/WX    TMP DP  RH WIND       PRES   REMARKS
BOISE          SUNNY    103  42  12 NW13      29.89F HX  98
CALDWELL       SUNNY    102  46  15 NW6       29.87F HX  98
MOUNTAIN HOME  SUNNY    104  40  11 NW14      29.89S HX  98
$$

IDZ016-017-030100-
SOUTHCENTRAL IDAHO


CITY           SKY/WX    TMP DP  RH WIND       PRES   REMARKS
BURLEY         SUNNY     92  53  26 W7        29.98F
JEROME         SUNNY     98  40  13 SW13G21   29.98F HX  93
TWIN FALLS     SUNNY    100  38  11 W9        29.97F HX  95
$$

IDZ019>023-030100-
SOUTHEAST IDAHO


CITY           SKY/WX    TMP DP  RH WIND       PRES   REMARKS
IDAHO FALLS    SUNNY     91  45  20 SW7       30.04F
POCATELLO      SUNNY     95  40  14 SW7       30.02F HX  91
REXBURG        SUNNY     90  43  19 S10       30.04F
$$

IDZ006-010-011-018-031-032-030100-
CENTRAL IDAHO MOUNTAINS


CITY           SKY/WX    TMP DP  RH WIND       PRES   REMARKS
MCCALL         SUNNY     91  35  13 NW10      30.08F
HAILEY         MOSUNNY   91  43  18 S6        30.06F
STANLEY          N/A     88  35  15 N8        30.19F
SALMON         SUNNY     97  36  11 N9        29.93F HX  92
CHALLIS        SUNNY     94  25   8 CALM      30.02F
$$

IDZ002-004-006-007-026-030100-
NORTHERN IDAHO


CITY           SKY/WX    TMP DP  RH WIND       PRES   REMARKS
LEWISTON       SUNNY    101  34   9 VRB3      29.86F HX  95
LOWELL           N/A    104  43  12 CALM      29.86F HX  99
COEUR D`ALENE  SUNNY     95  45  17 CALM      29.93F HX  91
MULLAN PASS    SUNNY     78  39  24 VRB3      30.21F
$$



USA.gov is the U.S. government's official web portal to all federal, state and local government web resources and services.